| time (UTC) | temp F | wind direction | speed knots | gust knots | rain 1hr in | rain 24hr in | rain mn in | humidity % | barometer mb |
| 20260503004010 | 66 | 360 | 0.9 | 3.5 | 0.00 | 0.00 | 0.00 | 32 | 1016.7 |
| 20260503003511 | 66 | 360 | 2.6 | 4.3 | 0.00 | 0.00 | 0.00 | 32 | 1016.7 |
| 20260503003036 | 67 | 321 | 1.7 | 4.3 | 0.00 | 0.00 | 0.00 | 32 | 1016.7 |
| 20260503002509 | 66 | 243 | 1.7 | 5.2 | 0.00 | 0.00 | 0.00 | 32 | 1016.6 |
| 20260503002015 | 66 | 67 | 1.7 | 8.7 | 0.00 | 0.00 | 0.00 | 32 | 1016.7 |
| 20260503001515 | 67 | 302 | 3.5 | 8.7 | 0.00 | 0.00 | 0.00 | 31 | 1016.7 |
| 20260503001011 | 66 | 50 | 0.0 | 4.3 | 0.00 | 0.00 | 0.00 | 32 | 1016.8 |
| 20260503000511 | 66 | 50 | 0.9 | 4.3 | 0.00 | 0.00 | 0.00 | 32 | 1016.8 |
| 20260503000035 | 67 | 76 | 1.7 | 5.2 | 0.00 | 0.00 | 0.00 | 31 | 1016.9 |
| 20260502235511 | 67 | 78 | 1.7 | 7.0 | 0.00 | 0.00 | 0.00 | 31 | 1017.0 |
| 20260502235013 | 67 | 56 | 1.7 | 5.2 | 0.00 | 0.00 | 0.00 | 31 | 1017.0 |
| 20260502234533 | 67 | 63 | 2.6 | 7.0 | 0.00 | 0.00 | 0.00 | 31 | 1017.1 |
| 20260502234011 | 66 | 360 | 3.5 | 7.0 | 0.00 | 0.00 | 0.00 | 32 | 1017.0 |
| 20260502233512 | 66 | 329 | 1.7 | 4.3 | 0.00 | 0.00 | 0.00 | 32 | 1017.0 |
| 20260502233032 | 66 | 69 | 1.7 | 5.2 | 0.00 | 0.00 | 0.00 | 32 | 1017.2 |
| 20260502232512 | 66 | 30 | 3.5 | 5.2 | 0.00 | 0.00 | 0.00 | 32 | 1017.1 |
| 20260502232012 | 65 | 352 | 2.6 | 7.0 | 0.00 | 0.00 | 0.00 | 33 | 1017.3 |
| 20260502231523 | 65 | 347 | 4.3 | 8.7 | 0.00 | 0.00 | 0.00 | 33 | 1017.3 |
| 20260502231013 | 65 | 9 | 7.0 | 8.7 | 0.00 | 0.00 | 0.00 | 33 | 1017.3 |
| 20260502230511 | 65 | 350 | 1.7 | 9.6 | 0.00 | 0.00 | 0.00 | 33 | 1017.5 |
| 20260502230035 | 65 | 281 | 3.5 | 9.6 | 0.00 | 0.00 | 0.00 | 33 | 1017.7 |
| 20260502225510 | 65 | 360 | 3.5 | 8.7 | 0.00 | 0.00 | 0.00 | 33 | 1017.5 |
| 20260502225011 | 65 | 331 | 3.5 | 10.4 | 0.00 | 0.00 | 0.00 | 32 | 1017.6 |
| 20260502224538 | 66 | 314 | 7.8 | 10.4 | 0.00 | 0.00 | 0.00 | 32 | 1017.7 |
| 20260502224011 | 66 | 321 | 2.6 | 9.6 | 0.00 | 0.00 | 0.00 | 32 | 1017.9 |
| 20260502223511 | 66 | 26 | 6.1 | 11.3 | 0.00 | 0.00 | 0.00 | 32 | 1017.9 |
| 20260502223031 | 66 | 22 | 4.3 | 11.3 | 0.00 | 0.00 | 0.00 | 32 | 1017.9 |
| 20260502222511 | 67 | 335 | 5.2 | 10.4 | 0.00 | 0.00 | 0.00 | 31 | 1018.0 |
| 20260502222011 | 66 | 33 | 3.5 | 11.3 | 0.00 | 0.00 | 0.00 | 32 | 1018.0 |
| 20260502221535 | 66 | 360 | 4.3 | 12.2 | 0.00 | 0.00 | 0.00 | 32 | 1018.0 |
| 20260502221013 | 67 | 344 | 8.7 | 12.2 | 0.00 | 0.00 | 0.00 | 31 | 1018.0 |
| 20260502220514 | 67 | 344 | 7.8 | 12.2 | 0.00 | 0.00 | 0.00 | 31 | 1018.2 |
| 20260502220038 | 67 | 346 | 7.8 | 14.8 | 0.00 | 0.00 | 0.00 | 31 | 1018.2 |
| 20260502215510 | 68 | 342 | 8.7 | 13.0 | 0.00 | 0.00 | 0.00 | 31 | 1018.3 |
| 20260502215012 | 67 | 340 | 7.8 | 13.0 | 0.00 | 0.00 | 0.00 | 32 | 1018.4 |
| 20260502214610 | 66 | 277 | 5.2 | 8.7 | 0.00 | 0.00 | 0.00 | 32 | 1018.4 |
| 20260502214011 | 66 | 292 | 3.5 | 8.7 | 0.00 | 0.00 | 0.00 | 32 | 1018.4 |
| 20260502213513 | 66 | 262 | 3.5 | 11.3 | 0.00 | 0.00 | 0.00 | 31 | 1018.6 |
| 20260502213016 | 67 | 263 | 7.0 | 11.3 | 0.00 | 0.00 | 0.00 | 30 | 1018.6 |
| 20260502212511 | 68 | 286 | 5.2 | 13.0 | 0.00 | 0.00 | 0.00 | 30 | 1018.7 |
| 20260502212011 | 68 | 265 | 9.6 | 13.0 | 0.00 | 0.00 | 0.00 | 30 | 1018.7 |
| 20260502211535 | 67 | 21 | 2.6 | 10.4 | 0.00 | 0.00 | 0.00 | 31 | 1018.7 |
| 20260502211013 | 67 | 348 | 5.2 | 15.6 | 0.00 | 0.00 | 0.00 | 31 | 1018.9 |
| 20260502210513 | 67 | 336 | 7.0 | 15.6 | 0.00 | 0.00 | 0.00 | 31 | 1018.9 |
| 20260502210046 | 67 | 296 | 8.7 | 13.0 | 0.00 | 0.00 | 0.00 | 30 | 1018.9 |
| 20260502205509 | 66 | 343 | 6.1 | 9.6 | 0.00 | 0.00 | 0.00 | 32 | 1018.9 |
| 20260502205016 | 66 | 322 | 0.9 | 13.0 | 0.00 | 0.00 | 0.00 | 32 | 1019.1 |
| 20260502204533 | 66 | 303 | 7.8 | 13.0 | 0.00 | 0.00 | 0.00 | 32 | 1019.1 |
| 20260502204010 | 66 | 348 | 7.0 | 12.2 | 0.00 | 0.00 | 0.00 | 32 | 1019.1 |
| 20260502203510 | 66 | 14 | 7.0 | 11.3 | 0.00 | 0.00 | 0.00 | 32 | 1019.3 |
| 20260502203020 | 65 | 313 | 6.1 | 11.3 | 0.00 | 0.00 | 0.00 | 33 | 1019.3 |
| 20260502202510 | 65 | 269 | 7.0 | 13.0 | 0.00 | 0.00 | 0.00 | 33 | 1019.3 |
| 20260502202014 | 66 | 261 | 5.2 | 13.0 | 0.00 | 0.00 | 0.00 | 32 | 1019.5 |
| 20260502201541 | 65 | 295 | 4.3 | 7.8 | 0.00 | 0.00 | 0.00 | 33 | 1019.6 |
| 20260502201014 | 65 | 338 | 4.3 | 7.8 | 0.00 | 0.00 | 0.00 | 33 | 1019.3 |
| 20260502200511 | 64 | 249 | 5.2 | 7.8 | 0.00 | 0.00 | 0.00 | 34 | 1019.6 |
| 20260502200033 | 63 | 339 | 4.3 | 7.8 | 0.00 | 0.00 | 0.00 | 34 | 1019.7 |
| 20260502195513 | 64 | 267 | 4.3 | 11.3 | 0.00 | 0.00 | 0.00 | 35 | 1019.7 |
| 20260502195012 | 64 | 293 | 7.0 | 13.0 | 0.00 | 0.00 | 0.00 | 36 | 1019.7 |
| 20260502194537 | 64 | 323 | 5.2 | 13.0 | 0.00 | 0.00 | 0.00 | 36 | 1019.9 |
| 20260502194011 | 63 | 341 | 3.5 | 11.3 | 0.00 | 0.00 | 0.00 | 36 | 1019.8 |
| 20260502193513 | 63 | 326 | 7.0 | 11.3 | 0.00 | 0.00 | 0.00 | 36 | 1019.9 |
| 20260502193023 | 63 | 304 | 6.1 | 12.2 | 0.00 | 0.00 | 0.00 | 37 | 1019.8 |
| 20260502192512 | 63 | 333 | 7.0 | 12.2 | 0.00 | 0.00 | 0.00 | 36 | 1019.9 |
| 20260502192013 | 63 | 346 | 8.7 | 12.2 | 0.00 | 0.00 | 0.00 | 35 | 1020.0 |
| 20260502191537 | 63 | 303 | 7.0 | 12.2 | 0.00 | 0.00 | 0.00 | 36 | 1020.1 |
| 20260502191012 | 62 | 352 | 7.8 | 12.2 | 0.00 | 0.00 | 0.00 | 36 | 1020.1 |
| 20260502190511 | 62 | 327 | 6.1 | 10.4 | 0.00 | 0.00 | 0.00 | 38 | 1020.2 |
| 20260502190023 | 62 | 348 | 6.1 | 10.4 | 0.00 | 0.00 | 0.00 | 38 | 1020.3 |
| 20260502185510 | 62 | 304 | 7.0 | 11.3 | 0.00 | 0.00 | 0.00 | 37 | 1020.3 |
| 20260502185011 | 62 | 319 | 7.8 | 11.3 | 0.00 | 0.00 | 0.00 | 37 | 1020.2 |
| 20260502184535 | 62 | 303 | 5.2 | 13.0 | 0.00 | 0.00 | 0.00 | 37 | 1020.2 |
| 20260502184018 | 62 | 314 | 9.6 | 13.0 | 0.00 | 0.00 | 0.00 | 37 | 1020.2 |
| 20260502183511 | 62 | 333 | 7.0 | 11.3 | 0.00 | 0.00 | 0.00 | 38 | 1020.3 |
| 20260502183058 | 62 | 344 | 7.0 | 12.2 | 0.00 | 0.00 | 0.00 | 38 | 1020.3 |
| 20260502182514 | 62 | 335 | 6.1 | 12.2 | 0.00 | 0.00 | 0.00 | 38 | 1020.4 |
| 20260502182013 | 62 | 335 | 5.2 | 11.3 | 0.00 | 0.00 | 0.00 | 38 | 1020.5 |
| 20260502181530 | 62 | 341 | 7.8 | 10.4 | 0.00 | 0.00 | 0.00 | 37 | 1020.4 |
| 20260502181013 | 62 | 346 | 6.1 | 11.3 | 0.00 | 0.00 | 0.00 | 37 | 1020.5 |
| 20260502180512 | 62 | 22 | 7.0 | 11.3 | 0.00 | 0.00 | 0.00 | 37 | 1020.4 |
| 20260502170511 | 62 | 348 | 7.0 | 12.2 | 0.00 | 0.00 | 0.00 | 39 | 1020.4 |
| 20260502164014 | 62 | 279 | 8.7 | 13.0 | 0.00 | 0.00 | 0.00 | 39 | 1020.5 |
| 20260502163511 | 62 | 316 | 7.8 | 12.2 | 0.00 | 0.00 | 0.00 | 40 | 1020.5 |
| 20260502163035 | 61 | 333 | 9.6 | 12.2 | 0.00 | 0.00 | 0.00 | 40 | 1020.6 |
| 20260502162510 | 62 | 342 | 7.8 | 14.8 | 0.00 | 0.00 | 0.00 | 40 | 1020.5 |
| 20260502162014 | 62 | 300 | 8.7 | 14.8 | 0.00 | 0.00 | 0.00 | 40 | 1020.4 |
| 20260502161525 | 62 | 321 | 7.8 | 13.9 | 0.00 | 0.00 | 0.00 | 40 | 1020.4 |
| 20260502161013 | 62 | 321 | 9.6 | 13.9 | 0.00 | 0.00 | 0.00 | 40 | 1020.6 |
| 20260502160514 | 62 | 317 | 8.7 | 13.0 | 0.00 | 0.00 | 0.00 | 40 | 1020.4 |
| 20260502152011 | 60 | 15 | 4.3 | 7.0 | 0.00 | 0.00 | 0.00 | 40 | 1020.1 |
| 20260502151535 | 60 | 331 | 1.7 | 9.6 | 0.00 | 0.00 | 0.00 | 41 | 1020.1 |
| 20260502151016 | 60 | 17 | 6.1 | 9.6 | 0.00 | 0.00 | 0.00 | 41 | 1020.0 |
| 20260502150514 | 60 | 340 | 3.5 | 7.8 | 0.00 | 0.00 | 0.00 | 41 | 1020.0 |
| 20260502130514 | 47 | 294 | 4.3 | 7.0 | 0.00 | 0.00 | 0.00 | 60 | 1019.5 |
| 20260502123512 | 43 | 296 | 2.6 | 5.2 | 0.00 | 0.00 | 0.00 | 65 | 1019.4 |
| 20260502123041 | 43 | 300 | 2.6 | 3.5 | 0.00 | 0.00 | 0.00 | 65 | 1019.4 |
| 20260502122514 | 43 | 327 | 0.9 | 3.5 | 0.00 | 0.00 | 0.00 | 64 | 1019.2 |
| 20260502122012 | 43 | 327 | 1.7 | 4.3 | 0.00 | 0.00 | 0.00 | 65 | 1019.2 |
| 20260502121533 | 43 | 323 | 2.6 | 4.3 | 0.00 | 0.00 | 0.00 | 65 | 1019.2 |
| 20260502121010 | 42 | 346 | 2.6 | 4.3 | 0.00 | 0.00 | 0.00 | 65 | 1019.1 |
| 20260502120508 | 42 | 326 | 2.6 | 4.3 | 0.00 | 0.00 | 0.00 | 64 | 1019.1 |
| 20260502115513 | 44 | 317 | 3.5 | 7.8 | 0.00 | 0.00 | 0.00 | 62 | 1019.0 |
| 20260502115014 | 44 | 336 | 5.2 | 7.8 | 0.00 | 0.00 | 0.00 | 62 | 1019.1 |
| 20260502114621 | 44 | 322 | 5.2 | 7.8 | 0.00 | 0.00 | 0.00 | 64 | 1018.9 |
| 20260502114014 | 42 | 328 | 4.3 | 7.8 | 0.00 | 0.00 | 0.00 | 66 | 1018.7 |
| 20260502113510 | 41 | 352 | 1.7 | 3.5 | 0.00 | 0.00 | 0.00 | 64 | 1018.6 |
| 20260502113050 | 42 | 352 | 1.7 | 3.5 | 0.00 | 0.00 | 0.00 | 63 | 1018.5 |
| 20260502112516 | 42 | 352 | 2.6 | 4.3 | 0.00 | 0.00 | 0.00 | 62 | 1018.4 |
| 20260502112013 | 43 | 351 | 2.6 | 5.2 | 0.00 | 0.00 | 0.00 | 62 | 1018.4 |
| 20260502111550 | 42 | 344 | 4.3 | 7.0 | 0.00 | 0.00 | 0.00 | 63 | 1018.3 |
| 20260502111017 | 42 | 325 | 4.3 | 7.0 | 0.00 | 0.00 | 0.00 | 63 | 1018.3 |
| 20260502110518 | 42 | 342 | 3.5 | 5.2 | 0.00 | 0.00 | 0.00 | 63 | 1018.3 |
| 20260502110046 | 42 | 328 | 3.5 | 5.2 | 0.00 | 0.00 | 0.00 | 61 | 1018.2 |
| 20260502105517 | 42 | 329 | 3.5 | 5.2 | 0.00 | 0.00 | 0.00 | 62 | 1018.2 |
| 20260502105014 | 42 | 341 | 3.5 | 5.2 | 0.00 | 0.00 | 0.00 | 62 | 1018.0 |
| 20260502104526 | 41 | 321 | 3.5 | 5.2 | 0.00 | 0.00 | 0.00 | 61 | 1018.0 |
| 20260502104017 | 42 | 329 | 3.5 | 5.2 | 0.00 | 0.00 | 0.00 | 59 | 1017.9 |
| 20260502103516 | 43 | 324 | 2.6 | 5.2 | 0.00 | 0.00 | 0.00 | 58 | 1017.8 |
| 20260502103047 | 44 | 350 | 3.5 | 7.0 | 0.00 | 0.00 | 0.00 | 58 | 1017.8 |
| 20260502102518 | 44 | 349 | 4.3 | 7.0 | 0.00 | 0.00 | 0.00 | 58 | 1017.7 |
| 20260502102017 | 43 | 340 | 4.3 | 5.2 | 0.00 | 0.00 | 0.00 | 58 | 1017.8 |
| 20260502101604 | 43 | 337 | 4.3 | 5.2 | 0.00 | 0.00 | 0.00 | 58 | 1017.7 |
| 20260502101019 | 43 | 340 | 3.5 | 5.2 | 0.00 | 0.00 | 0.00 | 58 | 1017.6 |
| 20260502100516 | 43 | 330 | 4.3 | 7.0 | 0.00 | 0.00 | 0.00 | 57 | 1017.5 |
| 20260502091512 | 45 | 304 | 4.3 | 7.0 | 0.00 | 0.00 | 0.00 | 53 | 1017.2 |
| 20260502091014 | 45 | 313 | 3.5 | 6.1 | 0.00 | 0.00 | 0.00 | 53 | 1017.2 |
| 20260502090510 | 45 | 311 | 4.3 | 7.0 | 0.00 | 0.00 | 0.00 | 53 | 1017.2 |
| 20260502071535 | 43 | 242 | 3.5 | 6.1 | 0.00 | 0.00 | 0.00 | 57 | 1015.4 |
| 20260502071005 | 44 | 259 | 2.6 | 5.2 | 0.00 | 0.00 | 0.00 | 55 | 1015.5 |
| 20260502070513 | 44 | 240 | 2.6 | 4.3 | 0.00 | 0.00 | 0.00 | 55 | 1015.6 |
| 20260502070035 | 44 | 250 | 3.5 | 6.1 | 0.00 | 0.00 | 0.00 | 55 | 1015.5 |
| 20260502065515 | 44 | 254 | 3.5 | 6.1 | 0.00 | 0.00 | 0.00 | 55 | 1015.5 |
| 20260502065011 | 44 | 251 | 3.5 | 6.1 | 0.00 | 0.00 | 0.00 | 54 | 1015.7 |
| 20260502064605 | 44 | 246 | 3.5 | 6.1 | 0.00 | 0.00 | 0.00 | 54 | 1015.7 |
| 20260502064011 | 45 | 250 | 3.5 | 6.1 | 0.00 | 0.00 | 0.00 | 52 | 1015.7 |
| 20260502063512 | 45 | 248 | 4.3 | 7.8 | 0.00 | 0.00 | 0.00 | 52 | 1015.5 |
| 20260502063035 | 44 | 254 | 6.1 | 7.8 | 0.00 | 0.00 | 0.00 | 51 | 1015.5 |
| 20260502062511 | 44 | 251 | 5.2 | 7.0 | 0.00 | 0.00 | 0.00 | 51 | 1015.4 |
| 20260502062013 | 43 | 250 | 4.3 | 7.0 | 0.00 | 0.00 | 0.00 | 51 | 1015.4 |
| 20260502061535 | 43 | 244 | 4.3 | 7.0 | 0.00 | 0.00 | 0.00 | 52 | 1015.3 |
| 20260502061009 | 43 | 245 | 2.6 | 4.3 | 0.00 | 0.00 | 0.00 | 51 | 1015.4 |
| 20260502060511 | 43 | 241 | 2.6 | 4.3 | 0.00 | 0.00 | 0.00 | 51 | 1015.4 |
| 20260502060056 | 44 | 243 | 1.7 | 2.6 | 0.00 | 0.00 | 0.00 | 49 | 1015.4 |
| 20260502055513 | 44 | 259 | 0.9 | 3.5 | 0.00 | 0.00 | 0.00 | 48 | 1015.5 |
| 20260502055014 | 45 | 259 | 1.7 | 5.2 | 0.00 | 0.00 | 0.00 | 48 | 1015.6 |
| 20260502054534 | 45 | 263 | 4.3 | 5.2 | 0.00 | 0.00 | 0.00 | 47 | 1015.6 |
| 20260502054014 | 46 | 259 | 2.6 | 5.2 | 0.00 | 0.00 | 0.00 | 44 | 1015.5 |
| 20260502053516 | 45 | 263 | 2.6 | 5.2 | 0.00 | 0.00 | 0.00 | 45 | 1015.5 |
| 20260502053032 | 45 | 265 | 1.7 | 3.5 | 0.00 | 0.00 | 0.00 | 44 | 1015.4 |
| 20260502052510 | 46 | 265 | 0.9 | 2.6 | 0.00 | 0.00 | 0.00 | 44 | 1015.4 |
| 20260502052011 | 46 | 265 | 1.7 | 3.5 | 0.00 | 0.00 | 0.00 | 43 | 1015.3 |
| 20260502051538 | 46 | 265 | 1.7 | 3.5 | 0.00 | 0.00 | 0.00 | 42 | 1015.3 |
| 20260502051011 | 48 | 265 | 1.7 | 2.6 | 0.00 | 0.00 | 0.00 | 39 | 1015.2 |
| 20260502050513 | 48 | 265 | 0.0 | 5.2 | 0.00 | 0.00 | 0.00 | 40 | 1015.2 |
| 20260502050034 | 48 | 265 | 1.7 | 5.2 | 0.00 | 0.00 | 0.00 | 41 | 1015.2 |
| 20260502045513 | 47 | 228 | 0.9 | 2.6 | 0.00 | 0.00 | 0.00 | 41 | 1015.3 |
| 20260502045010 | 47 | 228 | 0.9 | 2.6 | 0.00 | 0.00 | 0.00 | 41 | 1015.3 |
| 20260502044537 | 47 | 228 | 0.9 | 2.6 | 0.00 | 0.00 | 0.00 | 41 | 1015.3 |
| 20260502044012 | 48 | 187 | 1.7 | 2.6 | 0.00 | 0.00 | 0.00 | 39 | 1015.4 |
| 20260502043517 | 49 | 145 | 0.0 | 1.7 | 0.00 | 0.00 | 0.00 | 38 | 1015.2 |
| 20260502043100 | 49 | 145 | 0.9 | 1.7 | 0.00 | 0.00 | 0.00 | 39 | 1015.2 |
| 20260502042512 | 49 | 145 | 0.9 | 1.7 | 0.00 | 0.00 | 0.00 | 38 | 1015.1 |
| 20260502042015 | 49 | 145 | 0.0 | 1.7 | 0.00 | 0.00 | 0.00 | 38 | 1015.1 |
| 20260502041548 | 49 | 145 | 0.9 | 1.7 | 0.00 | 0.00 | 0.00 | 37 | 1015.3 |
| 20260502041010 | 50 | 145 | 0.9 | 1.7 | 0.00 | 0.00 | 0.00 | 37 | 1015.1 |
| 20260502040510 | 51 | 145 | 0.9 | 2.6 | 0.00 | 0.00 | 0.00 | 37 | 1015.2 |
| 20260502040036 | 52 | 145 | 0.9 | 3.5 | 0.00 | 0.00 | 0.00 | 35 | 1015.3 |
| 20260502035516 | 52 | 145 | 1.7 | 3.5 | 0.00 | 0.00 | 0.00 | 34 | 1015.1 |
| 20260502035014 | 53 | 284 | 1.7 | 3.5 | 0.00 | 0.00 | 0.00 | 34 | 1015.1 |
| 20260502034517 | 53 | 284 | 2.6 | 3.5 | 0.00 | 0.00 | 0.00 | 33 | 1015.0 |
| 20260502034013 | 54 | 334 | 0.9 | 3.5 | 0.00 | 0.00 | 0.00 | 32 | 1015.0 |
| 20260502033510 | 54 | 334 | 2.6 | 3.5 | 0.00 | 0.00 | 0.00 | 32 | 1014.9 |
| 20260502033038 | 54 | 334 | 2.6 | 3.5 | 0.00 | 0.00 | 0.00 | 31 | 1014.8 |
| 20260502032512 | 54 | 334 | 1.7 | 2.6 | 0.00 | 0.00 | 0.00 | 31 | 1014.8 |
| 20260502032011 | 54 | 334 | 1.7 | 3.5 | 0.00 | 0.00 | 0.00 | 31 | 1014.6 |
| 20260502031537 | 54 | 334 | 2.6 | 3.5 | 0.00 | 0.00 | 0.00 | 30 | 1014.6 |
| 20260502031013 | 54 | 334 | 1.7 | 3.5 | 0.00 | 0.00 | 0.00 | 30 | 1014.6 |
| 20260502030513 | 54 | 334 | 1.7 | 2.6 | 0.00 | 0.00 | 0.00 | 30 | 1014.4 |
| 20260502030046 | 54 | 334 | 1.7 | 2.6 | 0.00 | 0.00 | 0.00 | 30 | 1014.4 |
| 20260502025513 | 55 | 334 | 0.9 | 2.6 | 0.00 | 0.00 | 0.00 | 29 | 1014.4 |
| 20260502025013 | 56 | 334 | 1.7 | 2.6 | 0.00 | 0.00 | 0.00 | 28 | 1014.5 |
| 20260502024536 | 57 | 334 | 1.7 | 2.6 | 0.00 | 0.00 | 0.00 | 27 | 1014.5 |
| 20260502024013 | 58 | 334 | 1.7 | 2.6 | 0.00 | 0.00 | 0.00 | 27 | 1014.5 |
| 20260502023515 | 59 | 334 | 0.9 | 1.7 | 0.00 | 0.00 | 0.00 | 27 | 1014.4 |
| 20260502023039 | 59 | 334 | 0.9 | 1.7 | 0.00 | 0.00 | 0.00 | 26 | 1014.4 |
| 20260502022514 | 60 | 334 | 0.9 | 1.7 | 0.00 | 0.00 | 0.00 | 26 | 1014.3 |
| 20260502022015 | 61 | 334 | 0.9 | 3.5 | 0.00 | 0.00 | 0.00 | 25 | 1014.3 |
| 20260502021541 | 62 | 334 | 1.7 | 3.5 | 0.00 | 0.00 | 0.00 | 24 | 1014.2 |
| 20260502021013 | 63 | 334 | 2.6 | 3.5 | 0.00 | 0.00 | 0.00 | 23 | 1014.4 |
| 20260502020512 | 64 | 334 | 2.6 | 3.5 | 0.00 | 0.00 | 0.00 | 23 | 1014.4 |
| 20260502020037 | 65 | 334 | 1.7 | 2.6 | 0.00 | 0.00 | 0.00 | 22 | 1014.4 |
| 20260502015514 | 66 | 334 | 1.7 | 3.5 | 0.00 | 0.00 | 0.00 | 22 | 1014.4 |
| 20260502015012 | 67 | 333 | 1.7 | 4.3 | 0.00 | 0.00 | 0.00 | 21 | 1014.2 |
| 20260502014540 | 68 | 332 | 2.6 | 4.3 | 0.00 | 0.00 | 0.00 | 20 | 1014.4 |
| 20260502014012 | 69 | 333 | 2.6 | 4.3 | 0.00 | 0.00 | 0.00 | 20 | 1014.6 |
| 20260502013507 | 70 | 360 | 1.7 | 5.2 | 0.00 | 0.00 | 0.00 | 19 | 1014.6 |
| 20260502013058 | 71 | 360 | 3.5 | 7.0 | 0.00 | 0.00 | 0.00 | 18 | 1014.5 |
| 20260502012512 | 72 | 360 | 4.3 | 7.0 | 0.00 | 0.00 | 0.00 | 17 | 1014.5 |
| 20260502012016 | 73 | 314 | 3.5 | 7.0 | 0.00 | 0.00 | 0.00 | 17 | 1014.5 |
| 20260502011542 | 73 | 308 | 4.3 | 7.8 | 0.00 | 0.00 | 0.00 | 17 | 1014.8 |
| 20260502011013 | 74 | 305 | 5.2 | 9.6 | 0.00 | 0.00 | 0.00 | 17 | 1014.7 |
| 20260502010512 | 74 | 304 | 5.2 | 12.2 | 0.00 | 0.00 | 0.00 | 17 | 1014.7 |
| 20260502010039 | 74 | 296 | 8.7 | 12.2 | 0.00 | 0.00 | 0.00 | 16 | 1014.6 |
| 20260502005511 | 75 | 317 | 7.0 | 11.3 | 0.00 | 0.00 | 0.00 | 16 | 1014.9 |
| 20260502005011 | 75 | 283 | 7.0 | 11.3 | 0.00 | 0.00 | 0.00 | 16 | 1014.8 |
| 20260502004546 | 75 | 323 | 6.1 | 11.3 | 0.00 | 0.00 | 0.00 | 16 | 1014.9 |